DELTA 1 DEB, 27481

Orbit data source: Space-Track

DELTA 1 DEB, 27481 is space debris in LEO originally from a launch on Thu, 04 Jul 1968 UTC launched from the Air Force Western Test Range (AFWTR). Debris objects in space refer to the collection of defunct objects orbiting the Earth. Examples of debris include non-operational satellites, rocket bodies, and fragments generated from explosions, collisions, or faulty payload assembly.

Loading next visibility...
Identifier
27481, 1968-055J
Orbit
LEO
Country
Flag of USUS
Related business
Manufacturer
Unknown
Mission
Spacecraft
Bus & Motor
Unknown
Mass
Unknown
Launch date (UTC)
1968-07-04 (58 years ago)
Launch vehicle
Unknown
Launch site
Air Force Western Test Range (AFWTR)
Object type
Payload
Rocket body
Debris
Shape & HBR
Unknown shape, 0.1 m
Radar Cross Section
Small (<0.1 m²)

Expand to show TLE details & history
Last TLE update: 9 months ago

TLE from 9 months ago
0 DELTA 1 DEB
1 27481U 68055J   25208.54608927  .00009197  00000-0  12824-1 0  9998
2 27481 120.6928  40.1456 1708707 161.6122 205.5110 11.06835693475979
Epoch: 2025-07-27T13:06Z
TLE epoch observation values (Epoch: 2025-07-27T13:06:22.112Z)
Latitude
-0.00005°
Longitude
-101.91333°
Altitude
3,477.025 km
Speed
5.835 km/s
True Right ascension
02h 40m 34s
True Declination
0° 00' 00"
Sunlit
Object was in daylight at epoch
Visualization orbit readout
Latitude
Unknown
Longitude
Unknown
Altitude
Unknown
Speed
Unknown
Apparent Right ascension
Unknown
Apparent Declination
Unknown
Sunlit
N/A
Visualization observer readout
Local Sidereal Time
08:44:14
Azimuth
Unknown
Elevation
Unknown
Doppler factor
Unknown
Orbital elements
Apogee altitude
3,579.557 km
Perigee altitude
673.21 km
Semi-major axis
8,504.52 km
Eccentricity
0.17087
Inclination
120.6928°
RAAN
40.1456°
Arg. of periapsis
161.6122°
True anomaly
198.46457°
Mean anomaly
205.511°
Eccentric anomaly
201.86494°
Mean motion
2.76738 °/min
Orbital period
130.09 mins
BSTAR
0.012824
Loading maneuver chart data...
Computing Atmospheric mass density...
Loading historical data...
Loading historical data...
Loading historical data...
Loading historical data...
Loading historical data...
Loading historical data...
Loading historical data...

Documentation

Showing up to 5 results
|